Year,Month,Day,Hour,Minute,Value (Times are PST for temperature in C)
2019,03,19,00,00,7.80
2019,03,19,00,01,7.80
2019,03,19,00,02,7.80
2019,03,19,00,03,7.80
2019,03,19,00,04,7.80
2019,03,19,00,05,7.80
2019,03,19,00,06,7.80
2019,03,19,00,07,7.80
2019,03,19,00,08,7.80
2019,03,19,00,09,7.80
2019,03,19,00,10,7.80
2019,03,19,00,11,7.70
2019,03,19,00,12,7.70
2019,03,19,00,13,7.70
2019,03,19,00,14,7.70
2019,03,19,00,15,7.60
2019,03,19,00,16,7.60
2019,03,19,00,17,7.60
2019,03,19,00,18,7.60
2019,03,19,00,19,7.60
2019,03,19,00,20,7.60
2019,03,19,00,21,7.60
2019,03,19,00,22,7.60
2019,03,19,00,23,7.60
2019,03,19,00,24,7.60
2019,03,19,00,25,7.60
2019,03,19,00,26,7.60
2019,03,19,00,27,7.60
2019,03,19,00,28,7.60
2019,03,19,00,29,7.60
2019,03,19,00,30,7.60
2019,03,19,00,31,7.60
2019,03,19,00,32,7.50
2019,03,19,00,33,7.50
2019,03,19,00,34,7.50
2019,03,19,00,35,7.40
2019,03,19,00,36,7.40
2019,03,19,00,37,7.40
2019,03,19,00,38,7.40
2019,03,19,00,39,7.40
2019,03,19,00,40,7.30
2019,03,19,00,41,7.30
2019,03,19,00,42,7.30
2019,03,19,00,43,7.30
2019,03,19,00,44,7.30
2019,03,19,00,45,7.30
2019,03,19,00,46,7.20
2019,03,19,00,47,7.20
2019,03,19,00,48,7.20
2019,03,19,00,49,7.20
2019,03,19,00,50,7.10
2019,03,19,00,51,7.10
2019,03,19,00,52,7.10
2019,03,19,00,53,7.00
2019,03,19,00,54,7.00
2019,03,19,00,55,7.00
2019,03,19,00,56,7.00
2019,03,19,00,57,6.90
2019,03,19,00,58,6.90
2019,03,19,00,59,6.90
2019,03,19,01,00,6.90
2019,03,19,01,01,6.90
2019,03,19,01,02,6.90
2019,03,19,01,03,6.90
2019,03,19,01,04,6.90
2019,03,19,01,05,6.90
2019,03,19,01,06,6.90
2019,03,19,01,07,6.90
2019,03,19,01,08,6.90
2019,03,19,01,09,6.90
2019,03,19,01,10,6.90
2019,03,19,01,11,6.90
2019,03,19,01,12,6.90
2019,03,19,01,13,6.90
2019,03,19,01,14,6.90
2019,03,19,01,15,6.90
2019,03,19,01,16,6.90
2019,03,19,01,17,6.80
2019,03,19,01,18,6.80
2019,03,19,01,19,6.80
2019,03,19,01,20,6.80
2019,03,19,01,21,6.80
2019,03,19,01,22,6.80
2019,03,19,01,23,6.80
2019,03,19,01,24,6.70
2019,03,19,01,25,6.70
2019,03,19,01,26,6.70
2019,03,19,01,27,6.70
2019,03,19,01,28,6.70
2019,03,19,01,29,6.60
2019,03,19,01,30,6.60
2019,03,19,01,31,6.60
2019,03,19,01,32,6.60
2019,03,19,01,33,6.60
2019,03,19,01,34,6.60
2019,03,19,01,35,6.60
2019,03,19,01,36,6.60
2019,03,19,01,37,6.60
2019,03,19,01,38,6.50
2019,03,19,01,39,6.50
2019,03,19,01,40,6.50
2019,03,19,01,41,6.50
2019,03,19,01,42,6.50
2019,03,19,01,43,6.50
2019,03,19,01,44,6.50
2019,03,19,01,45,6.50
2019,03,19,01,46,6.40
2019,03,19,01,47,6.40
2019,03,19,01,48,6.40
2019,03,19,01,49,6.40
2019,03,19,01,50,6.40
2019,03,19,01,51,6.40
2019,03,19,01,52,6.40
2019,03,19,01,53,6.40
2019,03,19,01,54,6.40
2019,03,19,01,55,6.40
2019,03,19,01,56,6.40
2019,03,19,01,57,6.40
2019,03,19,01,58,6.40
2019,03,19,01,59,6.40
2019,03,19,02,00,6.40
2019,03,19,02,01,6.40
2019,03,19,02,02,6.30
2019,03,19,02,03,6.30
2019,03,19,02,04,6.30
2019,03,19,02,05,6.30
2019,03,19,02,06,6.30
2019,03,19,02,07,6.30
2019,03,19,02,08,6.30
2019,03,19,02,09,6.30
2019,03,19,02,10,6.20
2019,03,19,02,11,6.20
2019,03,19,02,12,6.20
2019,03,19,02,13,6.20
2019,03,19,02,14,6.20
2019,03,19,02,15,6.20
2019,03,19,02,16,6.20
2019,03,19,02,17,6.20
2019,03,19,02,18,6.20
2019,03,19,02,19,6.10
2019,03,19,02,20,6.10
2019,03,19,02,21,6.10
2019,03,19,02,22,6.10
2019,03,19,02,23,6.10
2019,03,19,02,24,6.10
2019,03,19,02,25,6.10
2019,03,19,02,26,6.10
2019,03,19,02,27,6.10
2019,03,19,02,28,6.10
2019,03,19,02,29,6.00
2019,03,19,02,30,6.00
2019,03,19,02,31,6.00
2019,03,19,02,32,6.00
2019,03,19,02,33,5.90
2019,03,19,02,34,5.90
2019,03,19,02,35,5.90
2019,03,19,02,36,5.90
2019,03,19,02,37,6.00
2019,03,19,02,38,6.00
2019,03,19,02,39,6.00
2019,03,19,02,40,6.00
2019,03,19,02,41,6.00
2019,03,19,02,42,6.00
2019,03,19,02,43,5.90
2019,03,19,02,44,5.90
2019,03,19,02,45,5.90
2019,03,19,02,46,5.90
2019,03,19,02,47,5.90
2019,03,19,02,48,5.80
2019,03,19,02,49,5.80
2019,03,19,02,50,5.80
2019,03,19,02,51,5.80
2019,03,19,02,52,5.80
2019,03,19,02,53,5.80
2019,03,19,02,54,5.80
2019,03,19,02,55,5.80
2019,03,19,02,56,5.70
2019,03,19,02,57,5.70
2019,03,19,02,58,5.70
2019,03,19,02,59,5.70
2019,03,19,03,00,5.70
2019,03,19,03,01,5.70
2019,03,19,03,02,5.60
2019,03,19,03,03,5.60
2019,03,19,03,04,5.60
2019,03,19,03,05,5.60
2019,03,19,03,06,5.70
2019,03,19,03,07,5.70
2019,03,19,03,08,5.70
2019,03,19,03,09,5.70
2019,03,19,03,10,5.70
2019,03,19,03,11,5.70
2019,03,19,03,12,5.70
2019,03,19,03,13,5.70
2019,03,19,03,14,5.70
2019,03,19,03,15,5.70
2019,03,19,03,16,5.70
2019,03,19,03,17,5.70
2019,03,19,03,18,5.70
2019,03,19,03,19,5.70
2019,03,19,03,20,5.70
2019,03,19,03,21,5.70
2019,03,19,03,22,5.70
2019,03,19,03,23,5.70
2019,03,19,03,24,5.70
2019,03,19,03,25,5.60
2019,03,19,03,26,5.60
2019,03,19,03,27,5.60
2019,03,19,03,28,5.60
2019,03,19,03,29,5.60
2019,03,19,03,30,5.60
2019,03,19,03,31,5.60
2019,03,19,03,32,5.60
2019,03,19,03,33,5.50
2019,03,19,03,34,5.50
2019,03,19,03,35,5.50
2019,03,19,03,36,5.50
2019,03,19,03,37,5.40
2019,03,19,03,38,5.40
2019,03,19,03,39,5.40
2019,03,19,03,40,5.40
2019,03,19,03,41,5.40
2019,03,19,03,42,5.40
2019,03,19,03,43,5.40
2019,03,19,03,44,5.40
2019,03,19,03,45,5.40
2019,03,19,03,46,5.40
2019,03,19,03,47,5.30
2019,03,19,03,48,5.30
2019,03,19,03,49,5.30
2019,03,19,03,50,5.30
2019,03,19,03,51,5.30
2019,03,19,03,52,5.30
2019,03,19,03,53,5.30
2019,03,19,03,54,5.30
2019,03,19,03,55,5.30
2019,03,19,03,56,5.30
2019,03,19,03,57,5.20
2019,03,19,03,58,5.20
2019,03,19,03,59,5.20
2019,03,19,04,00,5.20
2019,03,19,04,01,5.20
2019,03,19,04,02,5.20
2019,03,19,04,03,5.20
2019,03,19,04,04,5.20
2019,03,19,04,05,5.20
2019,03,19,04,06,5.20
2019,03,19,04,07,5.20
2019,03,19,04,08,5.20
2019,03,19,04,09,5.20
2019,03,19,04,10,5.20
2019,03,19,04,11,5.20
2019,03,19,04,12,5.10
2019,03,19,04,13,5.10
2019,03,19,04,14,5.10
2019,03,19,04,15,5.10
2019,03,19,04,16,5.00
2019,03,19,04,17,5.00
2019,03,19,04,18,5.00
2019,03,19,04,19,5.00
2019,03,19,04,20,4.90
2019,03,19,04,21,4.90
2019,03,19,04,22,4.90
2019,03,19,04,23,4.90
2019,03,19,04,24,4.90
2019,03,19,04,25,4.90
2019,03,19,04,26,4.90
2019,03,19,04,27,4.90
2019,03,19,04,28,4.90
2019,03,19,04,29,4.90
2019,03,19,04,30,4.90
2019,03,19,04,31,4.90
2019,03,19,04,32,4.90
2019,03,19,04,33,4.90
2019,03,19,04,34,4.90
2019,03,19,04,35,4.90
2019,03,19,04,36,4.90
2019,03,19,04,37,4.90
2019,03,19,04,38,4.80
2019,03,19,04,39,4.80
2019,03,19,04,40,4.80
2019,03,19,04,41,4.80
2019,03,19,04,42,4.80
2019,03,19,04,43,4.80
2019,03,19,04,44,4.80
2019,03,19,04,45,4.80
2019,03,19,04,46,4.70
2019,03,19,04,47,4.70
2019,03,19,04,48,4.70
2019,03,19,04,49,4.70
2019,03,19,04,50,4.70
2019,03,19,04,51,4.70
2019,03,19,04,52,4.70
2019,03,19,04,53,4.70
2019,03,19,04,54,4.70
2019,03,19,04,55,4.70
2019,03,19,04,56,4.70
2019,03,19,04,57,4.70
2019,03,19,04,58,4.70
2019,03,19,04,59,4.60
2019,03,19,05,00,4.60
2019,03,19,05,01,4.60
2019,03,19,05,02,4.60
2019,03,19,05,03,4.60
2019,03,19,05,04,4.60
2019,03,19,05,05,4.50
2019,03,19,05,06,4.50
2019,03,19,05,07,4.50
2019,03,19,05,08,4.50
2019,03,19,05,09,4.50
2019,03,19,05,10,4.50
2019,03,19,05,11,4.50
2019,03,19,05,12,4.50
2019,03,19,05,13,4.50
2019,03,19,05,14,4.60
2019,03,19,05,15,4.50
2019,03,19,05,16,4.50
2019,03,19,05,17,4.50
2019,03,19,05,18,4.50
2019,03,19,05,19,4.50
2019,03,19,05,20,4.50
2019,03,19,05,21,4.50
2019,03,19,05,22,4.50
2019,03,19,05,23,4.50
2019,03,19,05,24,4.50
2019,03,19,05,25,4.50
2019,03,19,05,26,4.50
2019,03,19,05,27,4.50
2019,03,19,05,28,4.50
2019,03,19,05,29,4.50
2019,03,19,05,30,4.50
2019,03,19,05,31,4.50
2019,03,19,05,32,4.50
2019,03,19,05,33,4.50
2019,03,19,05,34,4.60
2019,03,19,05,35,4.60
2019,03,19,05,36,4.60
2019,03,19,05,37,4.60
2019,03,19,05,38,4.60
2019,03,19,05,39,4.60
2019,03,19,05,40,4.60
2019,03,19,05,41,4.60
2019,03,19,05,42,4.60
2019,03,19,05,43,4.60
2019,03,19,05,44,4.60
2019,03,19,05,45,4.60
2019,03,19,05,46,4.60
2019,03,19,05,47,4.60
2019,03,19,05,48,4.60
2019,03,19,05,49,4.60
2019,03,19,05,50,4.60
2019,03,19,05,51,4.60
2019,03,19,05,52,4.50
2019,03,19,05,53,4.50
2019,03,19,05,54,4.50
2019,03,19,05,55,4.50
2019,03,19,05,56,4.50
2019,03,19,05,57,4.50
2019,03,19,05,58,4.50
2019,03,19,05,59,4.50
2019,03,19,06,00,4.50
2019,03,19,06,01,4.50
2019,03,19,06,02,4.50
2019,03,19,06,03,4.50
2019,03,19,06,04,4.50
2019,03,19,06,05,4.50
2019,03,19,06,06,4.50
2019,03,19,06,07,4.50
2019,03,19,06,08,4.60
2019,03,19,06,09,4.60
2019,03,19,06,10,4.60
2019,03,19,06,11,4.60
2019,03,19,06,12,4.60
2019,03,19,06,13,4.60
2019,03,19,06,14,4.70
2019,03,19,06,15,4.70
2019,03,19,06,16,4.70
2019,03,19,06,17,4.70
2019,03,19,06,18,4.70
2019,03,19,06,19,4.70
2019,03,19,06,20,4.70
2019,03,19,06,21,4.70
2019,03,19,06,22,4.70
2019,03,19,06,23,4.70
2019,03,19,06,24,4.70
2019,03,19,06,25,4.70
2019,03,19,06,26,4.70
2019,03,19,06,27,4.70
2019,03,19,06,28,4.70
2019,03,19,06,29,4.70
2019,03,19,06,30,4.70
2019,03,19,06,31,4.70
2019,03,19,06,32,4.70
2019,03,19,06,33,4.70
2019,03,19,06,34,4.70
2019,03,19,06,35,4.70
2019,03,19,06,36,4.70
2019,03,19,06,37,4.70
2019,03,19,06,38,4.80
2019,03,19,06,39,4.80
2019,03,19,06,40,4.80
2019,03,19,06,41,4.80
2019,03,19,06,42,4.80
2019,03,19,06,43,4.80
2019,03,19,06,44,4.70
2019,03,19,06,45,4.80
2019,03,19,06,46,4.80
2019,03,19,06,47,4.70
2019,03,19,06,48,4.70
2019,03,19,06,49,4.70
2019,03,19,06,50,4.70
2019,03,19,06,51,4.80
2019,03,19,06,52,4.80
2019,03,19,06,53,4.80
2019,03,19,06,54,4.80
2019,03,19,06,55,4.80
2019,03,19,06,56,4.80
2019,03,19,06,57,4.80
2019,03,19,06,58,4.80
2019,03,19,06,59,4.80
2019,03,19,07,00,4.90
2019,03,19,07,01,4.90
2019,03,19,07,02,4.80
2019,03,19,07,03,4.80
2019,03,19,07,04,4.80
2019,03,19,07,05,4.80
2019,03,19,07,06,4.80
2019,03,19,07,07,4.80
2019,03,19,07,08,4.80
2019,03,19,07,09,4.80
2019,03,19,07,10,4.70
2019,03,19,07,11,4.70
2019,03,19,07,12,4.70
2019,03,19,07,13,4.70
2019,03,19,07,14,4.70
2019,03,19,07,15,4.60
2019,03,19,07,16,4.60
2019,03,19,07,17,4.60
2019,03,19,07,18,4.60
2019,03,19,07,19,4.60
2019,03,19,07,20,4.60
2019,03,19,07,21,4.60
2019,03,19,07,22,4.60
2019,03,19,07,23,4.60
2019,03,19,07,24,4.60
2019,03,19,07,25,4.60
2019,03,19,07,26,4.60
2019,03,19,07,27,4.60
2019,03,19,07,28,4.60
2019,03,19,07,29,4.60
2019,03,19,07,30,4.50
2019,03,19,07,31,4.50
2019,03,19,07,32,4.50
2019,03,19,07,33,4.50
2019,03,19,07,34,4.50
2019,03,19,07,35,4.50
2019,03,19,07,36,4.50
2019,03,19,07,37,4.40
2019,03,19,07,38,4.40
2019,03,19,07,39,4.40
2019,03,19,07,40,4.40
2019,03,19,07,41,4.40
2019,03,19,07,42,4.40
2019,03,19,07,43,4.40
2019,03,19,07,44,4.40
2019,03,19,07,45,4.40
2019,03,19,07,46,4.40
2019,03,19,07,47,4.40
2019,03,19,07,48,4.40
2019,03,19,07,49,4.40
2019,03,19,07,50,4.40
2019,03,19,07,51,4.40
2019,03,19,07,52,4.40
2019,03,19,07,53,4.40
2019,03,19,07,54,4.30
2019,03,19,07,55,4.30
2019,03,19,07,56,4.40
2019,03,19,07,57,4.40
2019,03,19,07,58,4.40
2019,03,19,07,59,4.40
2019,03,19,08,00,4.40
2019,03,19,08,01,4.40
2019,03,19,08,02,4.40
2019,03,19,08,03,4.40
2019,03,19,08,04,4.40
2019,03,19,08,05,4.40
2019,03,19,08,06,4.40
2019,03,19,08,07,4.50
2019,03,19,08,08,4.50
2019,03,19,08,09,4.50
2019,03,19,08,10,4.50
2019,03,19,08,11,4.50
2019,03,19,08,12,4.60
2019,03,19,08,13,4.60
2019,03,19,08,14,4.70
2019,03,19,08,15,4.70
2019,03,19,08,16,4.80
2019,03,19,08,17,4.90
2019,03,19,08,18,5.00
2019,03,19,08,19,5.10
2019,03,19,08,20,5.20
2019,03,19,08,21,5.20
2019,03,19,08,22,5.30
2019,03,19,08,23,5.30
2019,03,19,08,24,5.30
2019,03,19,08,25,5.40
2019,03,19,08,26,5.50
2019,03,19,08,27,5.60
2019,03,19,08,28,5.70
2019,03,19,08,29,5.80
2019,03,19,08,30,5.90
2019,03,19,08,31,6.00
2019,03,19,08,32,6.20
2019,03,19,08,33,6.30
2019,03,19,08,34,6.40
2019,03,19,08,35,6.50
2019,03,19,08,36,6.60
2019,03,19,08,37,6.70
2019,03,19,08,38,6.80
2019,03,19,08,39,6.80
2019,03,19,08,40,6.90
2019,03,19,08,41,7.00
2019,03,19,08,42,7.10
2019,03,19,08,43,7.20
2019,03,19,08,44,7.30
2019,03,19,08,45,7.40
2019,03,19,08,46,7.50
2019,03,19,08,47,7.60
2019,03,19,08,48,7.70
2019,03,19,08,49,7.80
2019,03,19,08,50,7.80
2019,03,19,08,51,7.90
2019,03,19,08,52,8.00
2019,03,19,08,53,8.00
2019,03,19,08,54,8.10
2019,03,19,08,55,8.30
2019,03,19,08,56,8.40
2019,03,19,08,57,8.60
2019,03,19,08,58,8.80
2019,03,19,08,59,8.90
2019,03,19,09,00,9.00
2019,03,19,09,01,9.10
2019,03,19,09,02,9.20
2019,03,19,09,03,9.30
2019,03,19,09,04,9.40
2019,03,19,09,05,9.40
2019,03,19,09,06,9.40
2019,03,19,09,07,9.50
2019,03,19,09,08,9.40
2019,03,19,09,09,9.40
2019,03,19,09,10,9.40
2019,03,19,09,11,9.40
2019,03,19,09,12,9.40
2019,03,19,09,13,9.40
2019,03,19,09,14,9.50
2019,03,19,09,15,9.50
2019,03,19,09,16,9.60
2019,03,19,09,17,9.70
2019,03,19,09,18,9.70
2019,03,19,09,19,9.80
2019,03,19,09,20,10.00
2019,03,19,09,21,10.10
2019,03,19,09,22,10.20
2019,03,19,09,23,10.30
2019,03,19,09,24,10.40
2019,03,19,09,25,10.50
2019,03,19,09,26,10.60
2019,03,19,09,27,10.70
2019,03,19,09,28,10.70
2019,03,19,09,29,10.80
2019,03,19,09,30,10.90
2019,03,19,09,31,11.00
2019,03,19,09,32,11.20
2019,03,19,09,33,11.30
2019,03,19,09,34,11.40
2019,03,19,09,35,11.60
2019,03,19,09,36,11.80
2019,03,19,09,37,11.90
2019,03,19,09,38,12.00
2019,03,19,09,39,12.20
2019,03,19,09,40,12.30
2019,03,19,09,41,12.40
2019,03,19,09,42,12.50
2019,03,19,09,43,12.50
2019,03,19,09,44,12.60
2019,03,19,09,45,12.70
2019,03,19,09,46,12.70
2019,03,19,09,47,12.70
2019,03,19,09,48,12.80
2019,03,19,09,49,12.80
2019,03,19,09,50,12.80
2019,03,19,09,51,12.80
2019,03,19,09,52,12.80
2019,03,19,09,53,12.80
2019,03,19,09,54,12.80
2019,03,19,09,55,12.90
2019,03,19,09,56,12.90
2019,03,19,09,57,12.90
2019,03,19,09,58,13.00
2019,03,19,09,59,13.00
2019,03,19,10,00,13.10
2019,03,19,10,01,13.10
2019,03,19,10,02,13.10
2019,03,19,10,03,13.10
2019,03,19,10,04,13.20
2019,03,19,10,05,13.20
2019,03,19,10,06,13.20
2019,03,19,10,07,13.20
2019,03,19,10,08,13.20
2019,03,19,10,09,13.20
2019,03,19,10,10,13.20
2019,03,19,10,11,13.20
2019,03,19,10,12,13.20
2019,03,19,10,13,13.20
2019,03,19,10,14,13.20
2019,03,19,10,15,13.20
2019,03,19,10,16,13.30
2019,03,19,10,17,13.30
2019,03,19,10,18,13.30
2019,03,19,10,19,13.40
2019,03,19,10,20,13.40
2019,03,19,10,21,13.50
2019,03,19,10,22,13.50
2019,03,19,10,23,13.60
2019,03,19,10,24,13.60
2019,03,19,10,25,13.70
2019,03,19,10,26,13.80
2019,03,19,10,27,13.80
2019,03,19,10,28,13.90
2019,03,19,10,29,14.00
2019,03,19,10,30,14.10
2019,03,19,10,31,14.20
2019,03,19,10,32,14.20
2019,03,19,10,33,14.30
2019,03,19,10,34,14.30
2019,03,19,10,35,14.30
2019,03,19,10,36,14.40
2019,03,19,10,37,14.40
2019,03,19,10,38,14.50
2019,03,19,10,39,14.60
2019,03,19,10,40,14.60
2019,03,19,10,41,14.60
2019,03,19,10,42,14.70
2019,03,19,10,43,14.70
2019,03,19,10,44,14.70
2019,03,19,10,45,14.80
2019,03,19,10,46,14.80
2019,03,19,10,47,14.80
2019,03,19,10,48,14.80
2019,03,19,10,49,14.80
2019,03,19,10,50,14.90
2019,03,19,10,51,14.90
2019,03,19,10,52,14.90
2019,03,19,10,53,15.00
2019,03,19,10,54,15.00
2019,03,19,10,55,15.10
2019,03,19,10,56,15.10
2019,03,19,10,57,15.20
2019,03,19,10,58,15.20
2019,03,19,10,59,15.20
2019,03,19,11,00,15.30
2019,03,19,11,01,15.30
2019,03,19,11,02,15.30
2019,03,19,11,03,15.30
2019,03,19,11,04,15.30
2019,03,19,11,05,15.40
2019,03,19,11,06,15.40
2019,03,19,11,07,15.40
2019,03,19,11,08,15.40
2019,03,19,11,09,15.40
2019,03,19,11,10,15.40
2019,03,19,11,11,15.50
2019,03,19,11,12,15.50
2019,03,19,11,13,15.60
2019,03,19,11,14,15.60
2019,03,19,11,15,15.70
2019,03,19,11,16,15.70
2019,03,19,11,17,15.70
2019,03,19,11,18,15.70
2019,03,19,11,19,15.80
2019,03,19,11,20,15.80
2019,03,19,11,21,15.80
2019,03,19,11,22,15.80
2019,03,19,11,23,15.80
2019,03,19,11,24,15.80
2019,03,19,11,25,15.80
2019,03,19,11,26,15.80
2019,03,19,11,27,15.80
2019,03,19,11,28,15.80
2019,03,19,11,29,15.80
2019,03,19,11,30,15.90
2019,03,19,11,31,15.90
2019,03,19,11,32,15.90
2019,03,19,11,33,15.90
2019,03,19,11,34,16.00
2019,03,19,11,35,16.00
2019,03,19,11,36,16.10
2019,03,19,11,37,16.10
2019,03,19,11,38,16.10
2019,03,19,11,39,16.20
2019,03,19,11,40,16.20
2019,03,19,11,41,16.20
2019,03,19,11,42,16.30
2019,03,19,11,43,16.30
2019,03,19,11,44,16.40
2019,03,19,11,45,16.40
2019,03,19,11,46,16.40
2019,03,19,11,47,16.40
2019,03,19,11,48,16.40
2019,03,19,11,49,16.40
2019,03,19,11,50,16.50
2019,03,19,11,51,16.50
2019,03,19,11,52,16.50
2019,03,19,11,53,16.50
2019,03,19,11,54,16.60
2019,03,19,11,55,16.60
2019,03,19,11,56,16.60
2019,03,19,11,57,16.60
2019,03,19,11,58,16.60
2019,03,19,11,59,16.60
2019,03,19,12,00,16.60
2019,03,19,12,01,16.70
2019,03,19,12,02,16.70
2019,03,19,12,03,16.70
2019,03,19,12,04,16.80
2019,03,19,12,05,16.80
2019,03,19,12,06,16.80
2019,03,19,12,07,16.80
2019,03,19,12,08,16.80
2019,03,19,12,09,16.90
2019,03,19,12,10,16.90
2019,03,19,12,11,16.90
2019,03,19,12,12,17.00
2019,03,19,12,13,17.00
2019,03,19,12,14,17.10
2019,03,19,12,15,17.10
2019,03,19,12,16,17.10
2019,03,19,12,17,17.10
2019,03,19,12,18,17.10
2019,03,19,12,19,17.20
2019,03,19,12,20,17.20
2019,03,19,12,21,17.20
2019,03,19,12,22,17.20
2019,03,19,12,23,17.20
2019,03,19,12,24,17.30
2019,03,19,12,25,17.30
2019,03,19,12,26,17.30
2019,03,19,12,27,17.30
2019,03,19,12,28,17.30
2019,03,19,12,29,17.30
2019,03,19,12,30,17.30
2019,03,19,12,31,17.30
2019,03,19,12,32,17.30
2019,03,19,12,33,17.30
2019,03,19,12,34,17.30
2019,03,19,12,35,17.30
2019,03,19,12,36,17.20
2019,03,19,12,37,17.20
2019,03,19,12,38,17.20
2019,03,19,12,39,17.20
2019,03,19,12,40,17.20
2019,03,19,12,41,17.30
2019,03,19,12,42,17.30
2019,03,19,12,43,17.30
2019,03,19,12,44,17.40
2019,03,19,12,45,17.50
2019,03,19,12,46,17.50
2019,03,19,12,47,17.60
2019,03,19,12,48,17.60
2019,03,19,12,49,17.70
2019,03,19,12,50,17.70
2019,03,19,12,51,17.70
2019,03,19,12,52,17.70
2019,03,19,12,53,17.80
2019,03,19,12,54,17.80
2019,03,19,12,55,17.80
2019,03,19,12,56,17.80
2019,03,19,12,57,17.80
2019,03,19,12,58,17.80
2019,03,19,12,59,17.80
2019,03,19,13,00,17.80
2019,03,19,13,01,17.80
2019,03,19,13,02,17.80
2019,03,19,13,03,17.80
2019,03,19,13,04,17.80
2019,03,19,13,05,17.80
2019,03,19,13,06,17.80
2019,03,19,13,07,17.80
2019,03,19,13,08,17.80
2019,03,19,13,09,17.90
2019,03,19,13,10,17.90
2019,03,19,13,11,17.90
2019,03,19,13,12,17.90
2019,03,19,13,13,17.90
2019,03,19,13,14,17.90
2019,03,19,13,15,17.90
2019,03,19,13,16,17.90
2019,03,19,13,17,17.90
2019,03,19,13,18,17.90
2019,03,19,13,19,17.90
2019,03,19,13,20,17.90
2019,03,19,13,21,17.90
2019,03,19,13,22,17.90
2019,03,19,13,23,18.00
2019,03,19,13,24,18.00
2019,03,19,13,25,18.00
2019,03,19,13,26,18.10
2019,03,19,13,27,18.10
2019,03,19,13,28,18.10
2019,03,19,13,29,18.10
2019,03,19,13,30,18.20
2019,03,19,13,31,18.20
2019,03,19,13,32,18.30
2019,03,19,13,33,18.30
2019,03,19,13,34,18.40
2019,03,19,13,35,18.50
2019,03,19,13,36,18.60
2019,03,19,13,37,18.60
2019,03,19,13,38,18.70
2019,03,19,13,39,18.70
2019,03,19,13,40,18.70
2019,03,19,13,41,18.70
2019,03,19,13,42,18.70
2019,03,19,13,43,18.70
2019,03,19,13,44,18.80
2019,03,19,13,45,18.80
2019,03,19,13,46,18.80
2019,03,19,13,47,18.90
2019,03,19,13,48,18.90
2019,03,19,13,49,19.00
2019,03,19,13,50,19.10
2019,03,19,13,51,19.10
2019,03,19,13,52,19.10
2019,03,19,13,53,19.20
2019,03,19,13,54,19.20
2019,03,19,13,55,19.20
2019,03,19,13,56,19.20
2019,03,19,13,57,19.20
2019,03,19,13,58,19.20
2019,03,19,13,59,19.20
2019,03,19,14,00,19.30
2019,03,19,14,01,19.40
2019,03,19,14,02,19.40
2019,03,19,14,03,19.50
2019,03,19,14,04,19.60
2019,03,19,14,05,19.70
2019,03,19,14,06,19.70
2019,03,19,14,07,19.70
2019,03,19,14,08,19.70
2019,03,19,14,09,19.70
2019,03,19,14,10,19.70
2019,03,19,14,11,19.70
2019,03,19,14,12,19.80
2019,03,19,14,13,19.80
2019,03,19,14,14,19.80
2019,03,19,14,15,19.70
2019,03,19,14,16,19.80
2019,03,19,14,17,19.80
2019,03,19,14,18,19.90
2019,03,19,14,19,20.00
2019,03,19,14,20,20.10
2019,03,19,14,21,20.20
2019,03,19,14,22,20.30
2019,03,19,14,23,20.20
2019,03,19,14,24,20.20
2019,03,19,14,25,20.20
2019,03,19,14,26,20.20
2019,03,19,14,27,20.20
2019,03,19,14,28,20.30
2019,03,19,14,29,20.30
2019,03,19,14,30,20.40
2019,03,19,14,31,20.40
2019,03,19,14,32,20.50
2019,03,19,14,33,20.60
2019,03,19,14,34,20.60
2019,03,19,14,35,20.60
2019,03,19,14,36,20.60
2019,03,19,14,37,20.70
2019,03,19,14,38,20.90
2019,03,19,14,39,21.00
2019,03,19,14,40,21.10
2019,03,19,14,41,21.20
2019,03,19,14,42,21.30
2019,03,19,14,43,21.40
2019,03,19,14,44,21.40
2019,03,19,14,45,21.50
2019,03,19,14,46,21.40
2019,03,19,14,47,21.50
2019,03,19,14,48,21.50
2019,03,19,14,49,21.50
2019,03,19,14,50,21.60
2019,03,19,14,51,21.70
2019,03,19,14,52,21.70
2019,03,19,14,53,21.70
2019,03,19,14,54,21.70
2019,03,19,14,55,21.60
2019,03,19,14,56,21.50
2019,03,19,14,57,21.40
2019,03,19,14,58,21.30
2019,03,19,14,59,21.30
2019,03,19,15,00,21.20
2019,03,19,15,01,21.20
2019,03,19,15,02,21.10
2019,03,19,15,03,21.10
2019,03,19,15,04,21.10
2019,03,19,15,05,21.10
2019,03,19,15,06,21.10
2019,03,19,15,07,21.00
2019,03,19,15,08,20.90
2019,03,19,15,09,20.80
2019,03,19,15,10,20.80
2019,03,19,15,11,20.80
2019,03,19,15,12,20.80
2019,03,19,15,13,20.80
2019,03,19,15,14,20.80
2019,03,19,15,15,20.80
2019,03,19,15,16,20.90
2019,03,19,15,17,20.90
2019,03,19,15,18,21.00
2019,03,19,15,19,21.00
2019,03,19,15,20,21.10
2019,03,19,15,21,21.10
2019,03,19,15,22,21.10
2019,03,19,15,23,21.10
2019,03,19,15,24,21.10
2019,03,19,15,25,21.10
2019,03,19,15,26,21.10
2019,03,19,15,27,21.10
2019,03,19,15,28,21.10
2019,03,19,15,29,21.10
2019,03,19,15,30,21.10
2019,03,19,15,31,21.10
2019,03,19,15,32,21.10
2019,03,19,15,33,21.10
2019,03,19,15,34,21.10
2019,03,19,15,35,21.20
2019,03,19,15,36,21.20
2019,03,19,15,37,21.30
2019,03,19,15,38,21.30
2019,03,19,15,39,21.40
2019,03,19,15,40,21.60
2019,03,19,15,41,21.70
2019,03,19,15,42,21.80
2019,03,19,15,43,21.80
2019,03,19,15,44,21.70
2019,03,19,15,45,21.70
2019,03,19,15,46,21.70
2019,03,19,15,47,21.60
2019,03,19,15,48,21.60
2019,03,19,15,49,21.60
2019,03,19,15,50,21.60
2019,03,19,15,51,21.50
2019,03,19,15,52,21.40
2019,03,19,15,53,21.40
2019,03,19,15,54,21.30
2019,03,19,15,55,21.30
2019,03,19,15,56,21.20
2019,03,19,15,57,21.20
2019,03,19,15,58,21.20
2019,03,19,15,59,21.10
2019,03,19,16,00,21.10
2019,03,19,16,01,21.10
2019,03,19,16,02,21.10
2019,03,19,16,03,21.00
2019,03,19,16,04,21.00
2019,03,19,16,05,20.90
2019,03,19,16,06,20.90
2019,03,19,16,07,20.90
2019,03,19,16,08,20.90
2019,03,19,16,09,20.90
2019,03,19,16,10,20.80
2019,03,19,16,11,20.80
2019,03,19,16,12,20.80
2019,03,19,16,13,20.80
2019,03,19,16,14,20.80
2019,03,19,16,15,20.80
2019,03,19,16,16,20.80
2019,03,19,16,17,20.80
2019,03,19,16,18,20.80
2019,03,19,16,19,20.80
2019,03,19,16,20,20.70
2019,03,19,16,21,20.70
2019,03,19,16,22,20.70
2019,03,19,16,23,20.70
2019,03,19,16,24,20.70
2019,03,19,16,25,20.70
2019,03,19,16,26,20.70
2019,03,19,16,27,20.70
2019,03,19,16,28,20.70
2019,03,19,16,29,20.70
2019,03,19,16,30,20.70
2019,03,19,16,31,20.70
2019,03,19,16,32,20.70
2019,03,19,16,33,20.70
2019,03,19,16,34,20.70
2019,03,19,16,35,20.70
2019,03,19,16,36,20.70
2019,03,19,16,37,20.70
2019,03,19,16,38,20.70
2019,03,19,16,39,20.70
2019,03,19,16,40,20.70
2019,03,19,16,41,20.70
2019,03,19,16,42,20.70
2019,03,19,16,43,20.70
2019,03,19,16,44,20.70
2019,03,19,16,45,20.70
2019,03,19,16,46,20.70
2019,03,19,16,47,20.70
2019,03,19,16,48,20.70
2019,03,19,16,49,20.70
2019,03,19,16,50,20.70
2019,03,19,16,51,20.70
2019,03,19,16,52,20.80
2019,03,19,16,53,20.80
2019,03,19,16,54,20.80
2019,03,19,16,55,20.80
2019,03,19,16,56,20.80
2019,03,19,16,57,20.80
2019,03,19,16,58,20.80
2019,03,19,16,59,20.80
2019,03,19,17,00,20.80
2019,03,19,17,01,20.80
2019,03,19,17,02,20.80
2019,03,19,17,03,20.80
2019,03,19,17,04,20.80
2019,03,19,17,05,20.80
2019,03,19,17,06,20.70
2019,03,19,17,07,20.70
2019,03,19,17,08,20.70
2019,03,19,17,09,20.70
2019,03,19,17,10,20.70
2019,03,19,17,11,20.70
2019,03,19,17,12,20.70
2019,03,19,17,13,20.80
2019,03,19,17,14,20.80
2019,03,19,17,15,20.80
2019,03,19,17,16,20.80
2019,03,19,17,17,20.70
2019,03,19,17,18,20.70
2019,03,19,17,19,20.70
2019,03,19,17,20,20.70
2019,03,19,17,21,20.70
2019,03,19,17,22,20.70
2019,03,19,17,23,20.70
2019,03,19,17,24,20.70
2019,03,19,17,25,20.70
2019,03,19,17,26,20.70
2019,03,19,17,27,20.70
2019,03,19,17,28,20.70
2019,03,19,17,29,20.70
2019,03,19,17,30,20.70
2019,03,19,17,31,20.70
2019,03,19,17,32,20.70
2019,03,19,17,33,20.70
2019,03,19,17,34,20.70
2019,03,19,17,35,20.70
2019,03,19,17,36,20.70
2019,03,19,17,37,20.70
2019,03,19,17,38,20.70
2019,03,19,17,39,20.70
2019,03,19,17,40,20.70
2019,03,19,17,41,20.60
2019,03,19,17,42,20.60
2019,03,19,17,43,20.60